[TLELIST] Archives

 

[list_settings.list_name] Current TLEs

November 21st 2011 PDT

HST 1 20580U 90037B 11322.78926485 .00003833 00000-0 27427-3 0 8904 2 20580 028.4692 086.3040 0003046 325.5674 034.4772 15.01833969982915 ISS (ZARYA) 1 25544U 98067A 11324.49302016 .00007122 00000-0 96698-4 0 4658 2 25544 051.6388 094.1189 0031027 072.0401 045.1551 15.58347625745319 CXO 1 25867U 99040B 11325.00000000 -.00000188 00000-0 00000+0 0 6693 2 25867 070.6266 020.5387 8714731 277.3886 357.8251 00.37806598 8368 ____________________________________________________________________ These 2-Line ...Continue Reading

[list_settings.list_name] Current TLEs

November 20th 2011 PDT

HST 1 20580U 90037B 11322.78926485 .00003833 00000-0 27427-3 0 8904 2 20580 028.4692 086.3040 0003046 325.5674 034.4772 15.01833969982915 ISS (ZARYA) 1 25544U 98067A 11323.46538991 .00008225 00000-0 11084-3 0 4589 2 25544 051.6442 099.2690 0030876 068.5262 039.8190 15.58292711745155 CXO 1 25867U 99040B 11322.33333333 -.00000003 00000-0 00000+0 0 6689 2 25867 070.5965 020.7242 8712881 277.3944 354.7397 00.37805582 8352 ____________________________________________________________________ These 2-Line ...Continue Reading

[list_settings.list_name] Current TLEs

November 19th 2011 PDT

HST 1 20580U 90037B 11321.79244620 .00003773 00000-0 26982-3 0 8894 2 20580 028.4692 092.8211 0003105 314.0907 045.9515 15.01826226982768 ISS (ZARYA) 1 25544U 98067A 11322.49211586 .00039390 00000-0 50385-3 0 4527 2 25544 051.6378 104.1495 0031192 062.4164 342.4011 15.58233319745006 CXO 1 25867U 99040B 11322.33333333 -.00000003 00000-0 00000+0 0 6689 2 25867 070.5965 020.7242 8712881 277.3944 354.7397 00.37805582 8352 ____________________________________________________________________ These 2-Line ...Continue Reading

[list_settings.list_name] Current TLEs

November 18th 2011 PDT

HST 1 20580U 90037B 11320.79562259 .00003707 00000-0 26491-3 0 8885 2 20580 028.4689 099.3382 0003154 305.4602 054.5787 15.01818525982619 ISS (ZARYA) 1 25544U 98067A 11321.40266037 .00032945 00000-0 39487-3 0 4459 2 25544 051.6410 109.6232 0022112 067.4549 335.9031 15.60329514744831 CXO 1 25867U 99040B 11322.33333333 -.00000003 00000-0 00000+0 0 6689 2 25867 070.5965 020.7242 8712881 277.3944 354.7397 00.37805582 8352 ____________________________________________________________________ These 2-Line ...Continue Reading

[list_settings.list_name] Current TLEs

November 17th 2011 PDT

HST 1 20580U 90037B 11317.87157937 .00003609 00000-0 25771-3 0 8873 2 20580 028.4683 118.4462 0003166 275.3438 084.7068 15.01797410982177 ISS (ZARYA) 1 25544U 98067A 11320.24331019 .00028702 00000-0 34635-3 0 4381 2 25544 051.6402 115.4575 0021903 063.3716 303.4696 15.60234605744658 CXO 1 25867U 99040B 11319.70833333 -.00000060 00000-0 00000+0 0 6673 2 25867 070.5645 020.9714 8712365 277.3685 357.3346 00.37806151 8347 ____________________________________________________________________ These 2-Line ...Continue Reading

[list_settings.list_name] Current TLEs

November 16th 2011 PDT

HST 1 20580U 90037B 11317.87157937 .00003609 00000-0 25771-3 0 8873 2 20580 028.4683 118.4462 0003166 275.3438 084.7068 15.01797410982177 ISS (ZARYA) 1 25544U 98067A 11319.35907257 .00026540 00000-0 32156-3 0 4355 2 25544 051.6407 119.9061 0021886 060.9118 016.0525 15.60174326744517 CXO 1 25867U 99040B 11319.70833333 -.00000060 00000-0 00000+0 0 6673 2 25867 070.5645 020.9714 8712365 277.3685 357.3346 00.37806151 8347 ____________________________________________________________________ These 2-Line ...Continue Reading

[list_settings.list_name] Current TLEs

November 15th 2011 PDT

HST 1 20580U 90037B 11317.87157937 .00003609 00000-0 25771-3 0 8873 2 20580 028.4683 118.4462 0003166 275.3438 084.7068 15.01797410982177 ISS (ZARYA) 1 25544U 98067A 11318.52559631 .00025455 00000-0 30931-3 0 4300 2 25544 051.6402 124.0980 0021874 057.3669 015.2049 15.60124735744383 CXO 1 25867U 99040B 11319.70833333 -.00000060 00000-0 00000+0 0 6673 2 25867 070.5645 020.9714 8712365 277.3685 357.3346 00.37806151 8347 ____________________________________________________________________ These 2-Line ...Continue Reading

[list_settings.list_name] Current TLEs

November 14th 2011 PDT

HST 1 20580U 90037B 11315.94434408 .00003238 00000-0 23007-3 0 8867 2 20580 028.4688 131.0487 0003214 253.7100 106.3240 15.01782439981885 ISS (ZARYA) 1 25544U 98067A 11317.43923700 .00025400 00000-0 30934-3 0 4247 2 25544 051.6402 129.5626 0021849 053.2994 033.8338 15.60068263744210 CXO 1 25867U 99040B 11317.04166667 -.00000155 00000-0 00000+0 0 6661 2 25867 070.5467 021.2062 8709852 277.3516 354.2519 00.37802476 8332 ____________________________________________________________________ These 2-Line ...Continue Reading

[list_settings.list_name] Current TLEs

November 13th 2011 PDT

HST 1 20580U 90037B 11315.94434408 .00003238 00000-0 23007-3 0 8867 2 20580 028.4688 131.0487 0003214 253.7100 106.3240 15.01782439981885 ISS (ZARYA) 1 25544U 98067A 11316.20428241 .00027019 00000-0 32932-3 0 4160 2 25544 051.6400 135.7745 0021792 048.2449 298.6118 15.60010377744013 CXO 1 25867U 99040B 11317.04166667 -.00000155 00000-0 00000+0 0 6661 2 25867 070.5467 021.2062 8709852 277.3516 354.2519 00.37802476 8332 ____________________________________________________________________ These 2-Line ...Continue Reading

[list_settings.list_name] Current TLEs

November 12th 2011 PDT

HST 1 20580U 90037B 11314.94749233 .00003090 00000-0 21896-3 0 8850 2 20580 028.4690 137.5655 0003283 242.5328 117.5009 15.01775268981733 ISS (ZARYA) 1 25544U 98067A 11315.24309028 .00028609 00000-0 34887-3 0 4116 2 25544 051.6402 140.6084 0021790 045.2961 299.9839 15.59964389743865 CXO 1 25867U 99040B 11317.04166667 -.00000155 00000-0 00000+0 0 6661 2 25867 070.5467 021.2062 8709852 277.3516 354.2519 00.37802476 8332 ____________________________________________________________________ These 2-Line ...Continue Reading
  • This mailing list is a public mailing list - anyone may join or leave, at any time.
  • This mailing list is announce-only.

International Space Station (ISS) / Hubble Space Telescope (HST) / Chandra X-Ray Observatory Orbital Data via EMAIL

Privacy Policy:

Private list